Greenville, ME

11:31 PM EST on November 16, 2019 (GMT -0500)
Greenville

Weather History for KGNR - September, 2019

Change the Weather History Date:

Sunday, September 1, 2019

  Actual Average (KMLT) Record (KMLT)
Temperature  
Mean Temperature 57 °F -  
Max Temperature 69 °F 73 °F 93 °F (2010)
Min Temperature 46 °F 50 °F 35 °F (1904)
Degree Days  
Heating Degree Days 8    
Growing Degree Days 7 (Base 50)    
Moisture  
Dew Point 48 °F    
Average Humidity 75    
Maximum Humidity 97    
Minimum Humidity 49    
Precipitation  
Precipitation 0.00 in - - ()
Sea Level Pressure  
Sea Level Pressure 30.33 in    
Wind  
Wind Speed 3 mph ()    
Max Wind Speed 7 mph    
Max Gust Speed -    
Averages and records for this station are not official NWS values.
T = Trace of Precipitation, MM = Missing Value Source: Averaged Metar Reports

Daily Weather History Graph

Daily Weather History Graph

Search for Another Location

Airport or City:

Astronomy

Sep. 01, 2019 Rise Set
Actual Time 5:59 AM EDT 7:16 PM EDT
Civil Twilight 5:28 AM EDT 7:46 PM EDT
Nautical Twilight 4:51 AM EDT 8:23 PM EDT
Astronomical Twilight 4:12 AM EDT 9:02 PM EDT
Moon 8:30 AM EDT (9/1) 8:54 PM EDT (9/1)
Length of Visible Light 14h 18m
Length of Day
13h 17m
Waxing Crescent, 8% of the Moon is Illuminated
Sep 1
Waxing Crescent
Sep 5
First Quarter
Sep 14
Full
Sep 21
Last Quarter
Sep 28
New

Hourly Weather History & Observations

Time (EDT) Temp. Dew Point Humidity Pressure Visibility Wind Dir Wind Speed Gust Speed Precip Events Conditions
12:56 AM 53.1 °F 50.0 °F 89% 30.30 in - NNW 4.6 mph - N/A   Unknown
1:56 AM 52.0 °F 48.9 °F 89% 30.31 in - North 3.5 mph - N/A   Unknown
2:56 AM 52.0 °F 48.9 °F 89% 30.32 in - NW 4.6 mph - N/A   Unknown
3:56 AM 51.1 °F 48.9 °F 92% 30.33 in - NW 4.6 mph - N/A   Unknown
4:56 AM 50.0 °F 48.0 °F 93% 30.34 in - NW 3.5 mph - N/A   Unknown
5:56 AM 46.9 °F 46.0 °F 97% 30.36 in - Calm Calm - N/A   Unknown
6:56 AM 48.0 °F 46.0 °F 93% 30.39 in - Calm Calm - N/A   Unknown
7:56 AM 54.0 °F 50.0 °F 86% 30.39 in - NNW 4.6 mph - N/A   Unknown
8:56 AM 57.0 °F 50.0 °F 77% 30.40 in - Calm Calm - N/A   Unknown
9:56 AM 57.0 °F 48.0 °F 72% 30.40 in - SSW 4.6 mph - N/A   Unknown
10:56 AM 61.0 °F 46.0 °F 58% 30.40 in - North - - N/A   Unknown
11:56 AM 63.0 °F 46.0 °F 54% 30.38 in - Variable 5.8 mph - N/A   Unknown
1:56 PM 66.0 °F 48.9 °F 54% 30.34 in - Variable 4.6 mph - N/A   Unknown
2:56 PM 66.9 °F 46.9 °F 49% 30.32 in - SSW 6.9 mph - N/A   Unknown
3:56 PM 68.0 °F 48.0 °F 49% 30.31 in - Variable 4.6 mph - N/A   Unknown
4:56 PM 66.9 °F 48.9 °F 52% 30.30 in - Variable 4.6 mph - N/A   Unknown
5:56 PM 66.0 °F 48.9 °F 54% 30.29 in - Variable 3.5 mph - N/A   Unknown
6:56 PM 62.1 °F 50.0 °F 65% 30.29 in - Calm Calm - N/A   Unknown
7:56 PM 57.9 °F 50.0 °F 75% 30.28 in - SSE 4.6 mph - N/A   Unknown
8:56 PM 55.0 °F 50.0 °F 83% 30.27 in - SE 4.6 mph - N/A   Unknown
9:56 PM 53.1 °F 48.9 °F 86% 30.27 in - SE 3.5 mph - N/A   Unknown
10:56 PM 54.0 °F 48.9 °F 83% 30.25 in - Calm Calm - N/A   Unknown
11:56 PM 55.0 °F 48.0 °F 77% 30.25 in - Variable 4.6 mph - N/A   Unknown